This is the latest recevied weather packets stored in our database for station/object KK7KRZ. If no packets are shown the sender has not sent any weather packets the latest 10 day(s).
| Time | Temp. | Humidity | Pressure | Rain* | Wind** | Luminosity | Snow |
|---|---|---|---|---|---|---|---|
| 1777836136 | 25.56° C | 53% | 1010.5 hPa | 0 mm | - | 702 W/m² | - |
| 1777835833 | 26.11° C | 51% | 1010.5 hPa | 0 mm | - | 698 W/m² | - |
| 1777835531 | 25.56° C | 53% | 1010.5 hPa | 0 mm | - | 708 W/m² | - |
| 1777835227 | 25.56° C | 53% | 1010.7 hPa | 0 mm | - | 716 W/m² | - |
| 1777834924 | 25° C | 52% | 1010.6 hPa | 0 mm | - | 690 W/m² | - |
| 1777834621 | 25° C | 54% | 1010.7 hPa | 0 mm | - | 75 W/m² | - |
| 1777834316 | 24.44° C | 55% | 1010.8 hPa | 0 mm | - | 711 W/m² | - |
| 1777834011 | 25° C | 55% | 1010.8 hPa | 0 mm | - | 730 W/m² | - |
| 1777833708 | 24.44° C | 57% | 1010.7 hPa | 0 mm | - | 401 W/m² | - |
| 1777833404 | 23.89° C | 57% | 1011 hPa | 0 mm | - | 792 W/m² | - |
| 1777833102 | 23.89° C | 57% | 1010.6 hPa | 0 mm | - | 770 W/m² | - |
| 1777832800 | 23.89° C | 57% | 1011.1 hPa | 0 mm | - | 73 W/m² | - |
| 1777832498 | 23.89° C | 58% | 1011.2 hPa | 0 mm | - | 762 W/m² | - |
| 1777832194 | 22.78° C | 59% | 1011.2 hPa | 0 mm | - | 105 W/m² | - |
| 1777831891 | 22.78° C | 61% | 1011.2 hPa | 0 mm | - | 71 W/m² | - |
| 1777831588 | 22.78° C | 59% | 1011 hPa | 0 mm | - | 70 W/m² | - |
| 1777831286 | 22.78° C | 59% | 1011.2 hPa | 0 mm | - | 209 W/m² | - |
| 1777830983 | 22.22° C | 61% | 1011.4 hPa | 0 mm | - | 698 W/m² | - |
| 1777830680 | 21.67° C | 61% | 1011.3 hPa | 0 mm | - | 685 W/m² | - |
| 1777830376 | 21.67° C | 61% | 1011.3 hPa | 0 mm | - | 661 W/m² | - |
| 1777830074 | 21.67° C | 62% | 1011 hPa | 0 mm | - | 613 W/m² | - |
| 1777829769 | 21.11° C | 66% | 1011.4 hPa | 0 mm | - | 632 W/m² | - |
| 1777829465 | 21.11° C | 64% | 1011.3 hPa | 0 mm | - | 510 W/m² | - |
| 1777829162 | 20.56° C | 66% | 1011.2 hPa | 0 mm | - | 555 W/m² | - |
| 1777828860 | 20.56° C | 66% | 1011.4 hPa | 0 mm | - | 144 W/m² | - |
* Rain latest hour (hover to see other rain measurements)
** Current wind speed in m/s (hover to see current wind gust speed)